MMMXMMTO

Guest
Details From MMMX - Licenciado Benito Juarez Intl
To MMTO - Licenciado Adolfo Lopez Mateos Intl
Flight Number -
Tags Generated
Created
Modified
Stats Distance 28 nm / 52 km
Max Altitude 0 ft / 0 m
Waypoints 2
Social Downloads 7
Likes 0
Share VATSIM

Download

Looking for another format? Having issues loading an existing format? Contact us
Advertisement - Login to hide

Notes

Generated

Route

MMMX MMTO

ID Type Via Altitude Latitude Longitude Leg Dist Tot Dist Heading (true) Name
O MMMX APT - 0 ft / 0 m 19.42701˚ -99.08585˚ - 0 nm - -
O MMTO APT - 0 ft / 0 m 19.35450˚ -99.57388˚ 27 nm 27 nm 261° / 261° -

Altitude Profile

Advertisement - Login to hide

MMMX

Details ICAO MMMX (MEX)
Name Licenciado Benito Juarez Intl
Region Mexico
Timezone America/Mexico_City (UTC-6.0)
Stats Elevation 7,316 ft / 2,230 m (AMSL)
Location 19.436308° -99.072104°
Runways 2
Magnetic Variation 4.647° E

METAR

MMMX 181713Z 24003KT 5SM BKN200 19/05 A3041 NOSIG RMK 8/008 HZY

Decode

TAF

Not found

Departure Runways

ID Width Length Bearing (true) Bearing (mag) Surface Threshold Offset Overrun Length
05L 148 ft / 45 m 12,951 ft / 3,948 m 59.25° 54.60° Asphalt 1,033 ft / 315 m 0 ft / 0 m
05R 148 ft / 45 m 12,800 ft / 3,902 m 59.26° 54.61° Asphalt 1,493 ft / 455 m 0 ft / 0 m
23L 148 ft / 45 m 12,800 ft / 3,902 m 239.28° 234.63° Asphalt 0 ft / 0 m 200 ft / 61 m
23R 148 ft / 45 m 12,951 ft / 3,948 m 239.27° 234.62° Asphalt 1,640 ft / 500 m 0 ft / 0 m

MMTO

Details ICAO MMTO (TLC)
Name Toluca Lic. Adolfo Lopez Mateos
Region Mexico
Timezone America/Mexico_City (UTC-6.0)
Stats Elevation 8,466 ft / 2,580 m (AMSL)
Location 19.337072° -99.566007°
Runways 1
Magnetic Variation 4.852° E

METAR

MMTO 181721Z 15004KT 2SM HZ SCT200 17/05 A3046 RMK 8/001

Decode

TAF

TAF AMD MMTO 181242Z 1813/1918 00000KT 1/4SM FG VV003 TX19/1821Z TN01/1813Z FM181500 04005KT 3SM BR BKN015 FM181800 05008KT P6SM SCT015 SCT070 FM190600 06005KT P6SM SCT070 SCT200 BECMG 1910/1912 08004KT 5SM HZ

Decode

Destination Runways

ID Width Length Bearing (true) Bearing (mag) Surface Threshold Offset Overrun Length
15 148 ft / 45 m 13,825 ft / 4,214 m 156.90° 152.05° Asphalt 0 ft / 0 m 194 ft / 59 m
33 148 ft / 45 m 13,825 ft / 4,214 m 336.91° 332.06° Asphalt 545 ft / 166 m 194 ft / 59 m

Approach Navaids

Runway Type Ident Frequency Range Bearing (true) Bearing (mag) Slope Elevation
15 Localiser ITLC 109.50 MHz 18 nm / 33 km 156.95° 152.10° - 8,466 ft / 2,580 m (AMSL)
15 Glidescope ITLC 109.50 MHz 10 nm / 19 km 156.91° 152.05° 3.00° 8,466 ft / 2,580 m (AMSL)
15 DME ITLC 109.50 MHz 18 nm / 33 km - - - 8,466 ft / 2,580 m (AMSL)

Popular Alternatives